Flag for U.S.A. Weather past 2 weeks in Chesapeake, Virginia, U.S.A.

Now
86 °F

Warm.


Feels Like: 93 °F
Forecast: 73 / 87 °F
Wind: 6 mph from South

Location: Chesapeake Municipal Airport

Current Time: Jul 28, 2015 at 11:23:41 AM

Latest Report: Jul 28, 2015 at 10:55 AM


Visibility: 10 mi

Pressure: 30.03 "Hg

Humidity: 66%

Dew point: 73 °F

Location of ChesapeakeLocation

Historic Weather in Chesapeake — Graph

°F

Chesapeake temperature yesterday

Maximum temperature yesterday: 90 °F (at 3:15 PM)
Minimum temperature yesterday: 72 °F (at 2:15 AM)
Average temperature yesterday: 80 °F

Past Weeks' High & Low Weather Summary

 TemperatureHumidityPressure
High97 °F (Jul 20, 2:15 PM)100% (Jul 14, 1:15 AM)30.09 "Hg (Jul 14, 1:15 AM)
Low63 °F (Jul 26, 3:35 AM)31% (Jul 24, 1:15 PM)29.60 "Hg (Jul 14, 7:15 PM)
Average80 °F77%29.90 "Hg
* Reported Jul 13 10:15 AM — Jul 28 10:15 AM, Chesapeake, Weather by CustomWeather, © 2015

Note: Actual official high and low records may vary slightly from our data, if they occured in-between our weather recording intervals... More about our weather records

Advertising

Chesapeake weather history for previous 24 hours

 ConditionsComfort  
Time TempWeatherWind HumidityBarometerVisibility
10:15 AM
Tue, Jul 28
84 °FWarm.No wind74%30.03 "Hg10 mi
9:55 AM84 °FWarm.5 mph74%30.03 "Hg10 mi
9:35 AM82 °FWarm.No wind74%30.02 "Hg10 mi
9:15 AM82 °FWarm.5 mph74%30.02 "Hg10 mi
8:55 AM82 °FWarm.3 mph79%30.03 "Hg10 mi
8:35 AM82 °FWarm.No wind79%30.03 "Hg10 mi
8:15 AM81 °FWarm.No wind84%30.03 "Hg10 mi
7:55 AM79 °FWarm.No wind89%30.03 "Hg10 mi
7:35 AM75 °FMild.No wind94%30.03 "Hg10 mi
7:15 AM73 °FMild.No wind100%30.03 "Hg10 mi
6:55 AM73 °FMild.No wind94%30.03 "Hg10 mi
6:35 AM73 °FMild.No wind94%30.03 "Hg10 mi
6:15 AM73 °FMild.No wind94%30.02 "Hg10 mi
5:55 AM73 °FMild.No wind94%30.02 "Hg10 mi
5:15 AM72 °FFog.No wind100%30.01 "Hg5 mi
4:55 AM72 °FMild.No wind100%30.01 "Hg7 mi
4:35 AM73 °FMild.No wind94%30.01 "Hg10 mi
4:15 AM73 °FMild.No wind94%30.01 "Hg10 mi
3:55 AM73 °FMild.No wind94%30.02 "Hg10 mi
3:15 AM73 °FMild.No wind94%30.02 "Hg10 mi
2:55 AM73 °FMild.No wind94%30.02 "Hg10 mi
2:35 AM73 °FMild.No wind94%30.02 "Hg10 mi
2:15 AM75 °FMild.No wind94%30.01 "Hg10 mi
1:55 AM75 °FMild.No wind94%30.02 "Hg10 mi
1:35 AM73 °FMild.No wind94%30.02 "Hg10 mi
1:15 AM75 °FMild.No wind89%30.03 "Hg10 mi
12:55 AM75 °FMild.No wind94%30.03 "Hg10 mi
12:35 AM75 °FMild.No wind94%30.03 "Hg10 mi
12:15 AM77 °FWarm.No wind89%30.03 "Hg10 mi
11:55 PM
Mon, Jul 27
75 °FMild.No wind94%30.03 "Hg10 mi
11:35 PM77 °FWarm.No wind89%30.03 "Hg10 mi
11:15 PM79 °FWarm.No wind84%30.03 "Hg10 mi
10:55 PM79 °FWarm.No wind84%30.03 "Hg10 mi
10:35 PM79 °FWarm.No wind84%30.02 "Hg10 mi
10:15 PM81 °FWarm.3 mph79%30.01 "Hg10 mi
9:55 PM81 °FWarm.3 mph79%30.01 "Hg10 mi
9:35 PM81 °FWarm.3 mph79%30.01 "Hg10 mi
9:15 PM81 °FWarm.5 mph79%30.01 "Hg10 mi
8:55 PM81 °FWarm.3 mph79%30.01 "Hg10 mi
8:35 PM81 °FWarm.3 mph79%30.01 "Hg10 mi
8:15 PM81 °FWarm.3 mph79%30.00 "Hg10 mi
7:55 PM82 °FWarm.3 mph74%30.00 "Hg7 mi
7:35 PM82 °FHaze.No wind74%29.99 "Hg5 mi
7:15 PM84 °FWarm.3 mph70%29.99 "Hg10 mi
6:55 PM84 °FWarm.3 mph70%29.98 "Hg7 mi
6:15 PM88 °FWarm.6 mph59%29.98 "Hg10 mi
5:55 PM88 °FWarm.6 mph55%29.98 "Hg10 mi
5:15 PM90 °FHot.7 mph55%29.98 "Hg7 mi
4:55 PM88 °FWarm.6 mph59%29.99 "Hg10 mi
4:15 PM88 °FWarm.6 mph59%29.99 "Hg10 mi
3:55 PM88 °FWarm.6 mph59%29.99 "HgN/A
3:35 PM88 °FWarm.6 mph62%29.99 "Hg7 mi
3:15 PM90 °FHot.5 mph55%30.00 "Hg10 mi
2:55 PM88 °FWarm.6 mph62%30.01 "Hg7 mi
2:35 PM88 °FWarm.6 mph59%30.02 "Hg10 mi
2:15 PM88 °FWarm.6 mph55%30.02 "Hg10 mi
1:55 PM88 °FWarm.6 mph59%30.03 "Hg10 mi
1:35 PM88 °FWarm.5 mph62%30.03 "Hg10 mi
1:15 PM88 °FWarm.3 mph59%30.03 "Hg10 mi
12:55 PM86 °FWarm.3 mph62%30.03 "Hg10 mi
12:35 PM86 °FWarm.6 mph66%30.04 "Hg10 mi
12:15 PM84 °FWarm.5 mph66%30.04 "Hg10 mi
11:55 AM84 °FWarm.3 mph70%30.05 "Hg10 mi
11:35 AM82 °FDrizzle. Cloudy.No wind79%30.05 "Hg10 mi
11:15 AM81 °FLight rain. Cloudy.No wind84%30.05 "Hg10 mi
Weather by CustomWeather, © 2015

See weather overviewHow to use our weather pages